{"data":{"norad_id":59693,"intl_designator":"2024-086M","name":"STARLINK-32088","alt_names":[],"object_type":"PAYLOAD","status":"ACTIVE","operator":null,"country":"US","launch_date":"2024-05-08","launch_site_code":"AFETR","launch_vehicle":null,"mission":null,"orbit_class":"UNKNOWN","rcs_meters":null,"size_class":null,"mass_kg":null,"dimensions":null,"purposes":["comms"],"wikipedia_slug":null,"has_3d_model":false,"image_url":null,"decayed_at":null,"tle_current":{"epoch":"2026-05-24T22:59:05.777664Z","epoch_age_seconds":75136,"freshness":"FRESH","line1":"1 59693U 24086M   26144.95770576  .00001612  00000+0  68083-4 0  9993","line2":"2 59693  43.0014 341.6250 0001083 271.6611  88.4117 15.27580000115861","mean_motion":15.2758,"eccentricity":0.0001083,"inclination_deg":43.0014,"raan_deg":341.625,"arg_perigee_deg":271.6611,"mean_anomaly_deg":88.4117,"bstar":6.8083e-5,"rev_number":11586,"period_min":94.266748713652,"perigee_km":482.30602958545,"apogee_km":483.79216249385,"semimajor_km":6861.1860960397,"source":"CELESTRAK","updated_at":"2026-05-25T13:38:19.025128Z"}}}